Погода в Георгени

Румыния     46°43′25″N   25°36′06″E
темп.,
°C
ветер,
м/с
пор.,
м/с
влажн.,
%
обл.,
%
осадки,
мм/ч
давл.,
гПа
погр.,
м
2 августа, пн
пн200:00+18ююв22585 0.0 101123
03:00+18ююв226396 0.0 101115
06:00+16ююв11730 0.0 101011
09:00+21сз226036 0.0 1010248
12:00+26з37430 0.0 10101831
15:00+25зсз66470 0.0 10111760
18:00+21ссз23580 0.1 1012397
21:00+16ююз00790 0.1 101311
3 августа, вт
вт300:00+14з11830 0.0 101511
03:00+13зюз00825 0.0 101510
06:00+11зюз11792 0.0 101610
09:00+18зюз13560 0.0 1016432
12:00+22зсз36403 0.0 10161824
15:00+24з46375 0.0 10152373
18:00+22сз234599 0.0 10151200
21:00+17с226450 0.0 101623
4 августа, ср
ср400:00+13в11855 0.0 101711
03:00+12всв119019 0.0 101710
06:00+12вюв118879 0.0 101710
09:00+19ююв126347 0.0 1016279
12:00+25зюз153982 0.0 10152306
15:00+25зюз463763 0.0 10142666
18:00+23ю3451100 0.0 1015733
21:00+18ю2266100 0.0 101627
5 августа, чт
чт500:00+15ю117599 0.0 101611
03:00+15юв2278100 0.0 101614
06:00+13ююв118332 0.0 101611
09:00+21вюв226018 0.0 1013224
12:00+27ююв35335 0.0 10111526
15:00+30ю573170 0.0 10092857
18:00+29ююз46381 0.0 10061535
21:00+15зсз61594100 1.1 1013707
6 августа, пт
пт600:00+15св2298100 6.4 1011117
03:00+13ю1195100 6.4 101011
06:00+13зсз0194100 0.0 101010
09:00+16з1183100 0.0 1010245
12:00+19ссз0163100 0.0 1010904
15:00+20юз2268100 1.6 1010604
18:00+19зсз2376100 3.8 1009314
21:00+15з1184100 4.1 101111